Regional Weather Roundup
Issued by NWS Sterling, VA

Home | Current Version | Previous Version | Text Only | Print | Product List | Glossary Off
Versions: 1 2 3 4 5 6 7 8 9 10 11 12 13 14 15 16 17 18 19 20 21 22 23 24 25 26 27 28

000
ASUS41 KLWX 081310
RWRLWX

REGIONAL WEATHER ROUNDUP
NATIONAL WEATHER SERVICE BALTIMORE MD/WASHINGTON DC
800 AM EST THU DEC 08 2016

Note: "FAIR" indicates few or no clouds below 12,000 feet
with no significant weather and/or obstructions to visibility.
 TC=TEMPERATURE CELSIUS

 * =Non NWS site. Station does not report precipitation (e.g. rain,
    snow, etc.), thunder, or fog.

DCZ001-MDZ009-015-VAZ040>042-051-053>054-081400-
WASHINGTON METRO

CITY           SKY/WX    TMP DP  RH WIND       PRES   REMARKS
WASHINGTON NAT CLOUDY    43  31  62 N6        30.05S
DULLES         CLOUDY    37  33  85 CALM      30.04S
ANDREWS AFB    DRIZZLE   41  30  65 N2        30.03S
FT BELVOIR     CLOUDY    38  36  92 CALM      30.05S
QUANTICO       CLOUDY    37  34  89 NW3       30.06S
COLLEGE PARK*  CLOUDY    36  34  93 CALM      30.04F
LEESBURG*      CLOUDY    37  34  87 MISG      30.05S
MANASSAS*      CLEAR    N/A N/A N/A CALM      30.05
GAITHERSBURG*  CLOUDY    36  30  80 CALM      30.07F

$$

MDZ006>007-011-014-081400-
BALTIMORE METRO

CITY           SKY/WX    TMP DP  RH WIND       PRES   REMARKS
BWI AIRPORT    CLOUDY    39  32  76 W3        30.03S
MD SCIENCE CTR   N/A     43  27  53 MISG      30.04S
MARTIN STATE   CLOUDY    39  36  87 SW3       30.05S
ANNAPOLIS      CLOUDY    45  28  51 W6        30.04S
FORT MEADE*    CLOUDY    32  32 100 CALM      30.06F

$$

MDZ012-015-019>023-081400-
MARYLAND EASTERN SHORE

CITY           SKY/WX    TMP DP  RH WIND       PRES   REMARKS
OCEAN CITY     CLEAR     35  35 100 CALM      30.04F FOG
SALISBURY      FOG       34  34 100 CALM      30.04F VSB 1/4
BAY BRIDGE AP* CLOUDY    45  28  53 NW7       30.05R
EASTON*        CLOUDY    37  36  93 CALM      30.08S

$$

MDZ017>025-081400-
SOUTHERN MARYLAND

CITY           SKY/WX    TMP DP  RH WIND       PRES   REMARKS
PATUXENT RIVER CLOUDY    42  39  89 CALM      30.04S
ST INIGOES     CLOUDY    42  38  85 CALM      30.04S
LEONARDTOWN*   CLOUDY    37  36  93 CALM      30.06R

$$

MDZ003>005-081400-
NORTH CENTRAL MARYLAND

CITY           SKY/WX    TMP DP  RH WIND       PRES   REMARKS
FREDERICK*     CLOUDY    34  34 100 S5        30.07S
HAGERSTOWN APT CLOUDY    40  21  46 SW8       30.02S
WESTMINSTER*   CLOUDY    36  23  60 SW5       30.01S

$$

MDZ501>502-081400-
WESTERN MARYLAND

CITY           SKY/WX    TMP DP  RH WIND       PRES   REMARKS
OAKLAND*       CLOUDY    25  18  74 W7        29.97R
CUMBERLAND*    NOT AVBL

$$

VAZ025>031-081400-
SHENANDOAH VALLEY

CITY           SKY/WX    TMP DP  RH WIND       PRES   REMARKS
WINCHESTER*    CLOUDY    32  30  93 NW3       30.05R
FRONT ROYAL*   CLOUDY    32  32 100 S5        30.04S
LURAY*         CLOUDY    32  32 100 CALM      30.05R
NEW MARKET*    CLOUDY    32  29  87 CALM      30.05R
STAUNTON*      CLOUDY    32  31  98 CALM      30.07R
WAYNESBORO*    PTSUNNY   38  21  51 SW5       30.04S

$$

WVZ021-048>050-054>055-081400-
EASTERN WEST VIRGINIA PANHANDLE

CITY           SKY/WX    TMP DP  RH WIND       PRES   REMARKS
MARTINSBURG    CLOUDY    38  26  62 SW6       30.04S
PETERSBURG*    CLOUDY    30  28  91 CALM      30.07S

$$

VAZ036>039-050-081400-
CENTRAL FOOTHILLS

CITY           SKY/WX    TMP DP  RH WIND       PRES   REMARKS
CHARLOTTESVILL CLOUDY    37  34  89 S6        30.04R
CULPEPER*      CLOUDY    37  35  94 CALM      30.06S
ORANGE*          N/A     37  36  93 CALM      30.06R
GORDONSVILLE*  CLOUDY    37  36  98 CALM      30.04S
WARRENTON*     CLOUDY    37  33  84 SE3       30.03F

$$

VAZ055>057-081400-
NORTH AND CENTRAL PIEDMONT

CITY           SKY/WX    TMP DP  RH WIND       PRES   REMARKS
FREDERICKSBRG* CLOUDY    40  39  99 CALM      30.04S
STAFFORD*      CLOUDY    37  37 100 CALM      30.09S

$$

NCZ024-NYZ072-PAZ021-071-VAZ022-071-081400-
OTHER REGIONAL OBSERVATIONS

CITY           SKY/WX    TMP DP  RH WIND       PRES   REMARKS
NEW YORK CITY  CLOUDY    40  28  62 W3        30.00S
PHILADELPHIA   CLOUDY    38  30  73 SW5       30.02F
PITTSBURGH     MOCLDY    32  22  66 W9        30.02S WCI  24
ROANOKE        CLOUDY    42  18  37 NW13G22   30.10R
RICHMOND       CLOUDY    41  39  93 NW3       30.04R FOG
RALEIGH        CLOUDY    50  46  86 W3        30.04R

$$

ANZ530>537-081400-
MARINE OBSERVATIONS

STATION/POSITION TIME  TEMP    WIND        PRES
                       AIR SEA DIR/SP/G
                 (UTC) (F)     (DEG/KT/KT) (MB)
THOMAS PT LIGHT  1300   42 48  310/  8/  9   N/A
BALT KEY BRIDGE  1248   42     220/  7/  8 1017.2R
COVE POINT       1248   44     330/  3/  4 1018.0R
LEWISETTA        1248   43 48  310/  2/  3 1017.0R
SOLOMONS ISLAND  1248   42 50  330/  3/  4   N/A
PINEY POINT      1248           40/  4/  4   N/A

$$





USA.gov is the U.S. government's official web portal to all federal, state and local government web resources and services.